Location: Bli��� Lhota
(48.7570°N, 14.0120°E)
Time: 03:14:49
(UTC+00:00)

Cosmos 158 Rocket - Pass Details

Date: 18 September 2020
Orbit: 699 x 793 km, 74.0° (Epoch: 24 October)

Event Time Altitude Azimuth Distance (km) Brightness Sun altitude
Rises 17:31:49 0° 335° (NNW) 3,280 7.8 -4.5°
Reaches altitude 10° 17:34:14 10° 333° (NNW) 2,337 7.0 -4.9°
Maximum altitude 17:39:31 69° 251° (WSW) 821 4.4 -5.7°
Drops below altitude 10° 17:44:37 10° 169° (S) 2,262 6.2 -6.6°
Sets 17:46:56 0° 167° (SSE) 3,166 7.0 -6.9°
